Location: Astronomy Club of Akron Observatory
(40.9700°N, 81.5606°W)
Time: 06:51:21
(UTC-04:00)

ATLAS 2AS CENTAUR R/B - Visible Passes

Search period start: 29 June 2016 00:00
Search period end: 09 July 2016 00:00
Orbit: 904 x 1308 km, 63.7° (Epoch: 24 June)

Date Brightness Start Highest point End Pass type
(mag) Time Alt. Az. Time Alt. Az. Time Alt. Az.
29 Jun 3.1 00:05:37 11° SW 00:12:59 76° NW 00:21:06 10° NNE visible
29 Jun 5.0 01:59:17 10° W 02:05:26 24° NNW 02:11:48 10° NNE visible
29 Jun 5.6 03:56:03 10° NNW 03:59:50 14° N 04:03:39 10° NNE visible
29 Jun 4.4 21:35:00 10° SE 21:38:35 14° ESE 21:42:16 10° ENE visible
29 Jun 2.9 23:20:45 10° SSW 23:28:10 75° ESE 23:36:13 10° NE visible
30 Jun 4.6 01:13:13 10° W 01:19:59 32° NW 01:27:06 10° NNE visible
30 Jun 5.5 03:09:43 10° NW 03:13:56 15° NNW 03:18:12 10° NNE visible
30 Jun 5.6 05:03:58 10° NNW 05:08:48 16° NNE 05:13:35 10° NE visible
30 Jun 3.2 22:36:28 10° S 22:43:32 50° ESE 22:51:10 10° NE visible
01 Jul 4.1 00:27:31 10° WSW 00:34:42 43° NW 00:42:23 10° NNE visible
01 Jul 5.4 02:23:11 10° WNW 02:28:07 17° NNW 02:33:09 10° NNE visible
01 Jul 5.7 04:18:51 10° NNW 04:22:58 14° N 04:27:03 10° NE visible
01 Jul 3.6 21:52:44 10° S 21:59:04 32° ESE 22:05:51 10° NE visible
01 Jul 3.5 23:42:10 10° SW 23:49:36 61° NW 23:57:38 10° NNE visible
02 Jul 5.3 01:36:43 10° WNW 01:42:26 21° NNW 01:48:19 10° NNE visible
02 Jul 5.7 03:33:18 10° NNW 03:37:02 14° N 03:40:49 10° NNE visible
02 Jul 5.5 05:25:21 10° NNW 05:31:33 23° NNE 05:37:35 10° E visible
02 Jul 3.0 22:57:12 10° SSW 23:04:42 87° NW 23:12:49 10° NE visible
03 Jul 4.9 00:50:28 10° W 00:56:53 27° NNW 01:03:35 10° NNE visible
03 Jul 5.7 02:47:12 10° NW 02:51:07 14° N 02:55:04 10° NNE visible
03 Jul 5.6 04:40:34 10° NNW 04:45:55 18° NNE 04:51:10 10° ENE visible
03 Jul 3.0 22:12:39 10° SSW 22:19:57 64° ESE 22:27:53 10° NE visible
04 Jul 4.5 00:04:33 10° WSW 00:11:31 36° NW 00:18:53 10° NNE visible
04 Jul 5.6 02:00:46 10° NW 02:05:15 16° NNW 02:09:49 10° NNE visible
04 Jul 5.7 03:55:36 10° NNW 04:00:08 15° NNE 04:04:37 10° NE visible
04 Jul 3.3 21:28:34 10° S 21:35:23 42° ESE 21:42:44 10° NE visible
04 Jul 3.9 23:18:58 10° WSW 23:26:18 50° NW 23:34:10 10° NNE visible
05 Jul 5.5 01:14:13 10° WNW 01:19:29 19° NNW 01:24:52 10° NNE visible
05 Jul 5.8 03:10:21 10° NNW 03:14:15 14° N 03:18:09 10° NE visible
05 Jul 5.4 05:01:51 10° NNW 05:08:32 27° NNE 05:14:58 10° E visible
05 Jul 3.3 22:33:47 10° SW 22:41:17 71° NW 22:49:23 10° NNE visible
06 Jul 5.3 00:27:49 10° W 00:33:51 23° NNW 00:40:05 10° NNE visible
06 Jul 5.8 02:24:34 10° NNW 02:28:19 14° N 02:32:06 10° NNE visible
06 Jul 5.7 04:17:07 10° NNW 04:22:58 21° NNE 04:28:42 10° ENE visible
06 Jul 3.0 21:48:59 10° SSW 21:56:26 81° ESE 22:04:31 10° NE visible
06 Jul 4.9 23:41:43 10° W 23:48:22 30° NW 23:55:22 10° NNE visible
07 Jul 5.8 01:38:19 10° NW 01:42:25 14° N 01:46:34 10° NNE visible
07 Jul 5.8 03:32:16 10° NNW 03:37:15 17° NNE 03:42:11 10° ENE visible
07 Jul 4.6 05:23:03 10° NNW 05:30:44 42° NE 05:38:00 10° ESE visible
07 Jul 4.4 22:55:55 10° WSW 23:03:04 41° NW 23:10:39 10° NNE visible
08 Jul 5.8 00:51:47 10° NW 00:56:35 17° NNW 01:01:28 10° NNE visible
08 Jul 5.9 02:47:13 10° NNW 02:51:26 15° N 02:55:39 10° NE visible
08 Jul 5.1 04:38:20 10° NNW 04:45:26 31° NE 04:52:14 10° E visible
08 Jul 3.8 22:10:30 10° SW 22:17:56 57° NW 22:25:55 10° NNE visible
